SCP
1 1 1 1 1 1 1 1 1 1 1 1 1 1 1 1 1 2 2 2 2 3 3 3 3 3 3 3 2 2 2 2 1 1 1 1 1 0 1 2 3 3 3
1 1 1 1 1 1 1 1 1 1 1 1 1 1 1 1 1 1 2 2 2 2 3 3 3 3 3 3 3 2 2 2 2 1 1 1 1 1 1 2 3 3 3
1 1 1 1 1 1 1 1 1 1 1 1 1 1 1 1 1 1 1 1 2 2 2 2 3 3 3 3 3 3 3 3 2 2 1 1 1 1 1 2 2 2 2
0 1 1 1 1 1 1 1 1 1 1 1 1 0 0 0 1 1 1 1 1 1 1 2 2 2 3 3 3 3 3 3 3 2 2 1 1 1 1 2 2 2 2
1 1 1 1 1 1 1 1 0 0 1 0 0 1 1 1 1 0 1 1 1 1 1 1 1 2 2 3 4 4 4 3 3 2 2 2 2 2 2 2 2 2 2
1 1 1 1 1 1 1 1 0 0 1 1 1 1 1 1 1 1 1 1 1 1 1 1 1 1 1 2 3 3 3 3 3 3 2 2 2 2 2 2 2 2 2
1 1 1 1 1 1 1 0 0 0 0 0 1 1 1 1 1 1 1 1 1 1 1 1 1 1 1 1 2 2 3 3 3 2 2 3 3 3 3 2 2 2 2
0 0 0 1 1 1 1 0 0 0 0 0 0 0 0 0 0 0 0 0 0 1 1 1 1 1 1 1 1 2 2 3 2 2 2 3 3 3 3 3 3 3 2
0 0 0 0 0 1 1 1 1 0 0 0 0 0 0 0 0 0 0 0 0 1 1 1 1 1 1 1 1 2 2 2 2 2 2 3 4 4 4 3 3 3 3
0 0 0 0 0 0 0 1 1 1 1 1 1 0 0 0 0 0 0 1 0 0 1 1 1 1 1 1 1 2 2 2 2 1 2 4 5 5 4 4 4 4 4
0 0 0 0 0 0 0 0 1 1 1 0 1 1 0 0 0 0 1 1 1 1 1 1 1 1 1 1 1 2 2 2 1 1 2 5 6 6 5 4 4 4 4
0 0 0 0 0 0 0 0 0 0 0 0 0 0 0 0 0 0 1 1 1 1 1 1 1 1 1 1 1 1 2 1 1 1 3 6 7 6 6 5 5 4 4
0 0 0 0 0 0 0 0 0 0 0 0 0 0 0 0 0 0 0 1 1 1 1 1 1 1 1 1 1 1 1 1 1 2 4 6 7 7 6 6 6 5 5
0 0 0 0 0 0 0 0 0 0 0 0 0 0 0 0 0 0 0 0 0 0 0 0 1 1 1 1 1 1 1 1 1 2 4 6 6 6 6 6 6 6 5
0 0 0 0 0 0 0 0 0 0 0 0 0 0 0 0 0 0 0 0 0 0 0 0 0 1 1 1 1 1 1 1 1 1 3 5 6 6 6 6 6 6 6
0 0 0 0 0 0 0 0 0 0 0 0 0 0 0 0 0 0 0 0 0 0 0 0 0 0 1 1 1 1 1 1 1 1 2 4 5 5 5 6 7 7 7
0 0 0 0 0 0 0 0 0 0 0 0 0 0 0 0 0 0 0 0 0 0 0 0 0 1 1 1 1 1 1 1 1 1 2 3 3 4 5 5 7 7 7
0 0 0 0 0 0 0 0 0 0 0 0 0 0 0 0 0 0 0 0 0 0 0 0 1 1 1 1 1 1 1 1 1 1 2 2 2 3 4 5 6 7 7
0 0 0 0 0 0 0 0 0 0 0 0 0 0 0 0 0 0 0 0 0 0 0 0 0 1 1 1 1 1 1 1 1 1 2 2 2 2 3 4 5 6 7
1 1 1 0 0 0 0 0 0 0 0 0 0 0 0 0 0 0 0 0 0 0 0 0 0 0 1 1 1 1 1 1 1 1 1 2 2 3 3 3 3 4 5
1 1 1 0 0 0 0 0 0 0 0 0 0 0 0 0 0 0 0 0 0 0 0 0 0 0 0 0 1 1 1 1 1 1 1 2 2 2 3 3 3 3 3
1 1 1 0 0 1 0 0 0 0 0 0 0 0 0 0 0 0 0 0 0 0 0 0 0 0 0 0 0 1 1 0 1 1 1 1 1 2 2 2 2 2 2
1 1 1 1 1 1 1 0 0 0 0 0 0 0 0 0 0 0 0 0 0 0 0 0 0 0 0 0 0 0 0 0 0 1 1 1 1 1 1 2 2 2 1
1 1 1 1 1 1 1 0 0 0 0 0 0 0 0 0 0 0 0 0 0 0 0 0 0 0 0 0 0 0 0 0 0 1 1 1 1 1 1 1 1 1 1
1 1 1 1 1 1 1 1 1 0 0 0 0 0 0 0 0 0 0 0 0 0 0 0 0 0 0 0 0 0 0 0 0 0 1 1 1 1 1 1 1 1 2
1 1 1 1 1 1 1 1 1 0 0 0 0 0 0 0 0 0 0 0 0 0 0 0 0 0 0 0 0 0 0 0 0 0 0 1 1 1 1 1 1 1 1
Wind_Speed
8 10 10 10 11 11 10 10 10 10 9 9 8 8 7 7 7 7 7 7 7 6 6 7 7 7 7 7 7 7 7 7 7 6 5 5 4 5 6 7 8 5 7
12 11 11 11 11 11 10 10 10 10 10 9 8 8 7 7 7 6 6 6 6 6 6 6 6 6 6 6 6 6 7 7 7 7 6 4 2 4 6 7 8 5 8
13 12 11 11 11 11 10 10 10 10 9 9 8 7 7 6 6 6 5 5 5 5 6 6 6 6 5 6 6 6 6 7 8 9 9 3 2 5 6 7 7 7 7
13 11 11 12 11 11 10 10 9 9 9 8 7 7 6 6 5 5 5 5 5 5 5 5 5 5 4 5 5 6 6 7 9 11 6 2 3 7 7 7 7 7 7
13 12 12 12 11 11 11 10 9 9 8 7 7 6 6 5 5 4 4 4 4 4 4 4 5 4 4 4 5 5 6 8 10 10 5 3 4 6 7 6 7 7 7
13 13 11 12 11 11 10 10 9 8 8 7 6 6 5 5 4 4 4 4 4 4 3 4 4 4 4 4 4 5 6 8 10 5 3 3 4 5 6 6 6 6 7
12 12 11 12 11 11 10 9 8 7 7 6 6 5 4 4 4 4 3 3 4 4 4 4 4 4 4 4 4 5 6 8 6 4 3 3 5 6 5 5 5 6 6
11 12 11 12 12 11 10 9 8 7 6 5 4 3 2 1 1 2 2 3 3 3 4 4 4 4 4 4 4 5 6 8 7 5 3 3 6 6 5 4 4 4 5
8 9 10 10 10 11 10 9 7 6 4 3 2 1 1 2 3 3 1 1 2 3 4 4 4 4 4 5 5 5 6 7 5 4 4 3 6 6 5 4 3 4 4
6 7 7 7 8 8 8 8 7 6 4 3 3 3 4 6 7 6 4 2 1 3 4 5 5 6 6 7 7 7 7 6 5 4 0 4 7 6 5 3 3 3 3
6 5 6 6 6 5 6 8 7 7 6 5 5 7 6 4 3 4 4 5 3 4 5 6 7 8 8 9 11 10 7 4 4 2 2 6 7 5 4 3 3 3 3
5 4 4 5 5 4 3 5 3 3 3 3 1 2 2 2 1 0 4 5 6 6 7 8 10 9 7 5 8 9 4 5 4 2 3 8 7 4 3 2 2 2 2
5 4 4 4 5 4 3 2 1 1 1 0 2 1 1 2 2 0 1 2 3 5 3 4 5 4 4 3 2 3 4 4 1 1 4 7 6 4 3 2 2 2 2
6 4 4 3 4 4 4 1 1 1 1 1 2 2 2 2 2 2 1 0 1 1 1 1 2 3 4 3 2 3 3 2 1 2 4 7 6 5 4 3 3 2 2
6 5 4 3 4 4 4 1 1 2 1 2 2 2 2 1 2 2 2 1 2 2 1 1 2 2 3 3 3 3 2 2 1 1 2 7 7 6 5 4 4 4 3
6 6 5 4 4 3 2 1 2 2 1 2 2 2 2 1 2 2 3 2 2 2 2 2 3 2 2 2 3 3 3 2 1 1 2 4 6 6 6 6 5 5 5
6 7 6 3 3 4 4 4 2 1 2 2 2 2 4 3 3 2 3 3 3 3 3 3 4 3 3 3 3 3 2 2 1 1 2 3 4 6 7 7 6 6 6
6 7 6 3 4 4 3 2 2 2 3 2 2 3 5 5 4 3 2 3 3 3 3 2 2 3 3 3 2 3 2 1 2 3 3 3 3 4 5 8 7 7 7
6 7 6 4 3 4 2 1 1 2 1 1 2 3 4 5 5 4 3 2 3 3 3 4 2 2 3 4 3 3 2 2 2 3 3 3 3 4 4 6 8 8 8
4 6 6 5 3 3 2 1 2 2 2 2 2 2 2 3 4 4 3 3 3 2 3 3 3 3 3 3 5 3 2 2 1 2 3 1 1 3 4 5 5 5 8
3 4 5 5 4 3 2 1 1 1 1 1 1 2 1 2 3 3 3 3 2 2 3 4 3 4 3 3 3 3 3 2 1 2 2 1 1 1 3 4 4 4 4
3 3 4 4 4 4 2 1 1 0 1 0 0 0 1 2 2 3 3 3 3 2 2 3 3 2 3 3 2 2 2 3 3 2 1 1 1 1 2 4 4 5 4
3 3 2 3 4 4 3 1 1 0 1 1 1 0 1 1 1 1 3 3 3 2 1 2 2 2 2 3 2 0 0 2 2 2 1 1 1 1 1 1 3 4 5
3 2 2 3 3 4 3 2 0 1 1 1 1 0 1 2 1 1 2 3 3 2 2 2 2 2 2 2 3 2 2 1 0 2 2 1 1 1 1 1 2 2 4
4 3 2 3 3 3 2 2 1 2 2 1 1 1 2 1 2 2 2 3 3 2 2 2 2 2 2 2 2 2 2 2 1 1 2 2 1 1 1 1 1 2 3
4 3 2 2 2 2 1 1 2 2 2 3 3 2 2 2 2 2 2 2 3 2 2 2 2 2 2 2 2 1 1 1 1 1 1 1 1 1 0 1 1 2 2
Wind_Direction
102 104 101 96 94 90 87 89 88 86 85 83 79 76 71 68 64 59 54 49 44 39 37 38 37 32 29 32 32 26 21 16 8 359 356 2 19 31 31 24 16 28 32
110 106 99 96 94 90 89 89 86 82 80 78 75 74 71 66 62 57 51 46 41 35 34 35 32 34 26 20 23 21 14 4 350 335 325 324 11 44 40 32 29 31 29
108 109 101 93 93 90 88 89 85 82 80 77 74 72 69 65 62 56 50 42 35 29 31 28 26 30 24 16 14 11 5 350 334 323 313 293 99 69 51 39 34 31 30
105 105 98 95 92 89 87 88 87 84 80 75 72 69 65 61 56 47 40 34 27 23 25 20 18 20 17 9 8 3 357 338 325 319 315 4 77 72 55 43 37 33 30
102 99 99 97 93 90 87 86 86 85 80 76 72 68 63 58 49 41 34 29 24 19 19 12 6 4 359 355 355 351 345 333 322 313 313 47 78 73 59 48 42 37 33
105 105 106 102 98 94 90 86 85 83 80 75 69 63 58 54 48 39 30 21 12 6 5 5 359 352 347 342 341 337 334 328 319 315 329 67 86 72 64 54 47 40 37
112 116 118 113 108 102 95 89 86 83 79 75 68 60 51 45 37 26 16 9 3 354 349 352 345 340 336 331 327 327 326 320 298 298 311 93 100 84 68 58 50 45 41
114 121 125 125 120 115 107 97 89 84 81 77 74 66 51 35 19 2 350 352 344 342 337 331 327 319 318 318 311 308 313 310 314 327 322 108 109 96 76 64 55 47 42
116 125 135 140 133 124 115 109 103 100 100 101 106 141 245 256 249 243 248 344 341 329 319 312 309 300 291 288 286 285 290 298 298 292 319 94 108 100 85 68 57 50 46
119 120 124 134 137 140 134 131 133 139 151 165 195 229 244 250 242 232 220 177 280 294 297 294 289 284 276 268 264 263 267 281 265 271 320 108 108 100 84 71 63 55 53
116 123 125 128 126 133 143 144 162 172 190 203 212 232 253 251 224 215 171 170 220 253 267 270 268 268 267 261 251 248 253 249 251 245 114 116 110 100 96 84 77 63 56
132 126 121 120 119 114 99 133 163 163 174 213 168 190 260 301 327 358 157 203 229 246 255 257 260 267 262 252 241 232 236 242 243 235 131 128 116 108 110 110 99 82 67
124 109 108 113 116 113 106 109 91 100 141 357 19 19 360 347 345 335 168 201 234 241 243 252 252 251 252 244 226 202 221 243 226 149 130 130 126 124 130 140 130 119 89
108 110 103 100 109 105 90 87 174 123 67 59 10 354 45 13 331 348 321 21 284 266 242 257 260 275 284 279 261 242 243 239 244 138 148 148 149 157 166 162 151 145 133
130 128 108 94 82 89 99 260 85 89 46 67 48 343 35 19 329 353 330 346 312 326 320 298 288 294 309 317 322 308 290 283 272 194 143 163 164 172 179 175 167 162 163
134 121 99 81 87 84 98 51 69 65 118 57 55 345 5 18 341 353 331 333 333 337 333 327 315 315 305 300 302 305 297 287 286 250 174 176 176 180 185 181 173 172 170
125 114 102 92 77 67 47 21 38 47 44 42 58 4 6 6 355 4 355 344 344 340 335 333 338 335 317 309 302 291 280 269 267 260 212 177 177 190 189 182 176 173 173
116 113 116 107 92 87 71 29 9 37 35 7 41 30 7 356 4 6 356 338 339 340 333 329 322 322 319 317 312 303 304 291 253 245 230 194 179 182 190 186 182 177 174
123 128 123 109 101 98 103 140 69 44 35 353 46 50 11 349 355 7 342 336 345 343 340 328 348 341 322 319 300 273 266 260 259 262 247 222 180 173 174 180 182 177 172
126 123 119 127 118 109 96 39 67 50 359 21 59 66 22 337 355 358 331 342 354 348 338 329 329 320 301 298 302 308 284 254 242 262 266 254 167 180 173 168 170 177 178
128 124 130 137 137 118 87 45 33 37 333 7 35 72 5 340 354 336 328 334 348 337 326 322 325 325 313 305 313 313 299 275 234 241 242 216 188 190 164 164 170 168 174
120 112 129 131 121 116 124 163 185 143 283 251 344 89 16 353 347 337 342 332 324 315 320 316 321 317 309 318 315 320 325 329 315 250 220 198 184 172 177 172 169 167 167
96 109 110 113 131 135 146 134 1 350 294 307 258 173 228 246 271 314 319 314 310 312 296 297 308 306 299 309 313 311 318 287 307 311 268 182 166 152 157 165 150 153 152
112 100 104 114 113 122 135 137 298 286 286 284 302 215 262 236 213 238 286 295 299 302 306 301 322 316 308 300 309 294 265 261 280 316 324 345 153 134 145 142 133 136 139
76 69 48 81 84 91 95 126 226 284 300 315 319 293 275 259 228 222 248 280 287 290 298 299 321 308 289 274 278 294 304 304 265 214 282 315 353 60 127 130 132 129 134
63 55 34 47 67 74 49 253 228 253 273 283 285 285 285 270 246 231 236 270 286 299 312 307 287 279 269 273 275 268 261 269 276 255 249 256 251 271 138 151 148 143 135